(212640) = 2006 UD25 = 2004 GM63

Discovered at Kitt Peak on 2006-10-16 by Spacewatch.

Orbit

Orbit type: Main Belt

Note: WebGL enabled browser required.

epoch2023-09-13.0
epoch JD2460200.5
perihelion date2021-04-08.16720
perihelion JD2459312.66720
argument of perihelion (°)341.13848
ascending node (°)321.65029
inclination (°)1.36535
eccentricity0.0851118
perihelion distance (AU)2.7448907
Tisserand w.r.t. Jupiter3.2
ΔV w.r.t. Earth (km/sec)10.3
semimajor axis (AU)3.0002472
mean anomaly (°)168.38347
mean daily motion (°/day)0.18965670
aphelion distance (AU)3.256
period (years)5.2
P-vector [x]0.54160037
P-vector [y]-0.76817207
P-vector [z]-0.34143918
Q-vector [x]0.84050608
Q-vector [y]0.48769395
Q-vector [z]0.23601725
absolute magnitude16.68
phase slope0.15
uncertainty0
referenceMPEC 2024-B173
observations used235
oppositions18
arc length (days)10353
first opposition used1995
last opposition used2024
residual rms (arc-secs)0.83
perturbers coarse indicatorM-v
perturbers precise indicator003Ek
first observation date used1995-09-26.0
last observation date used2024-01-30.0
computer nameMPCLINUX
JD of orbit computation2456760.698156
perihelion JD uncertainty (days)2.1615E-04
argument of perihelion uncertainty (°)2.4940E-04
ascending node uncertainty (°)2.4640E-04
inclination uncertainty (°)4.8583E-06
eccentricity uncertainty 3.9877E-08
perihelion distance uncertainty (AU)1.2481E-07
Minimum Orbit Intersection Distances (in AU)
for orbit epoch: 2460200.5, reference: E2024-BH3
Mercury2.30109
Venus2.01733
Earth1.72896
Mars1.3218
Jupiter1.91387
Saturn5.82859
Uranus15.2468
Neptune26.7966

Observations

238 total observations over interval: 1995 09 26.19143 – 2024 01 30.384116
These data are available for download (format description).

Date (UT) J2000 RA J2000 Dec Magn Location Ref
1995 09 26.19143 22 28 25.95 -08 44 38.6 20.9 V 691 – Steward Observatory, Kitt Peak-Spacewatch MPS 289790
1995 09 26.21255 22 28 25.26 -08 44 42.1 20.6 V 691 – Steward Observatory, Kitt Peak-Spacewatch MPS 289790
2000 07 29.24841 21 32 33.50 -14 51 35.5 18.2 R 807 – Cerro Tololo Observatory, La Serena MPS 289790
2001 11 11.31670 03 14 56.13 +20 08 53.2 21.6 V 691 – Steward Observatory, Kitt Peak-Spacewatch MPS 213819
2001 11 11.33970 03 14 54.93 +20 08 48.6 21.9 V 691 – Steward Observatory, Kitt Peak-Spacewatch MPS 213819
2001 11 11.36385 03 14 53.58 +20 08 43.8 21.8 V 691 – Steward Observatory, Kitt Peak-Spacewatch MPS 213819
2001 11 20.28382 03 07 12.66 +19 38 05.4 21.5 V 291 – LPL/Spacewatch II MPS 213819
2001 11 20.30341 03 07 11.69 +19 38 01.3 21.6 V 291 – LPL/Spacewatch II MPS 213819
2001 11 20.31563 03 07 11.08 +19 37 58.8 21.7 V 291 – LPL/Spacewatch II MPS 213819
2003 01 27.35058 08 27 52.83 +19 42 46.4 21.8 V 291 – LPL/Spacewatch II MPS 185683
2003 01 27.38085 08 27 51.22 +19 42 50.4 21.7 V 291 – LPL/Spacewatch II MPS 185683
2003 01 27.41125 08 27 49.59 +19 42 55.2 21.7 V 291 – LPL/Spacewatch II MPS 185683
2004 04 13.22675 13 07 13.75 -09 00 54.7 20.9 V 691 – Steward Observatory, Kitt Peak-Spacewatch MPS 105251
2004 04 13.25489 13 07 12.42 -09 00 46.9 21.1 V 691 – Steward Observatory, Kitt Peak-Spacewatch MPS 105251
2004 04 13.28325 13 07 11.00 -09 00 39.0 21.2 V 691 – Steward Observatory, Kitt Peak-Spacewatch MPS 105251
2004 04 20.23363 13 01 53.55 -08 29 06.7 21.7 V 691 – Steward Observatory, Kitt Peak-Spacewatch MPS 105251
2004 04 20.26139 13 01 52.29 -08 28 59.3 21.4 V 691 – Steward Observatory, Kitt Peak-Spacewatch MPS 105251
2004 04 20.28877 13 01 51.02 -08 28 52.0 21.4 V 691 – Steward Observatory, Kitt Peak-Spacewatch MPS 105251
2005 06 16.36729 20 10 18.67 -21 14 21.4 21.1 V 691 – Steward Observatory, Kitt Peak-Spacewatch MPS 185683
2005 06 16.38480 20 10 18.19 -21 14 23.0 21.3 V 691 – Steward Observatory, Kitt Peak-Spacewatch MPS 185683
2005 06 16.40233 20 10 17.72 -21 14 24.5 21.1 V 691 – Steward Observatory, Kitt Peak-Spacewatch MPS 185683
2005 06 26.37819 20 04 55.12 -21 28 56.8 20.3 V G96 – Mt. Lemmon Survey MPS 185683
2005 06 26.38539 20 04 54.84 -21 28 58.0 19.7 V G96 – Mt. Lemmon Survey MPS 185683
2005 06 26.39259 20 04 54.55 -21 28 58.8 21.4 V G96 – Mt. Lemmon Survey MPS 185683
2005 06 26.40191 20 04 54.19 -21 28 59.9 20.2 V G96 – Mt. Lemmon Survey MPS 185683
2005 07 07.26473 19 56 56.66 -21 48 41.4 20.8 V 691 – Steward Observatory, Kitt Peak-Spacewatch MPS 185683
2005 07 07.28219 19 56 55.78 -21 48 43.4 20.6 V 691 – Steward Observatory, Kitt Peak-Spacewatch MPS 185683
2005 07 07.29978 19 56 54.89 -21 48 45.3 20.6 V 691 – Steward Observatory, Kitt Peak-Spacewatch MPS 185683
2006 10 16.23810 02 09 44.69 +15 06 24.4 21.0 V 691 – Steward Observatory, Kitt Peak-Spacewatch MPS 184255
2006 10 16.25556 02 09 43.85 +15 06 20.7 21.3 V 691 – Steward Observatory, Kitt Peak-Spacewatch MPS 184255
2006 10 16.27285 02 09 43.00 +15 06 16.7 20.7 V 691 – Steward Observatory, Kitt Peak-Spacewatch MPS 184255
2006 10 20.21464 02 06 33.18 +14 50 55.8 20.8 V 691 – Steward Observatory, Kitt Peak-Spacewatch MPS 184255
2006 10 20.23200 02 06 32.31 +14 50 51.5 20.9 V 691 – Steward Observatory, Kitt Peak-Spacewatch MPS 184255
2006 10 20.24935 02 06 31.43 +14 50 47.4 21.2 V 691 – Steward Observatory, Kitt Peak-Spacewatch MPS 184255
2006 10 29.17809 01 59 11.75 +14 13 24.6   691 – Steward Observatory, Kitt Peak-Spacewatch MPS 185683
2006 10 29.19543 01 59 10.85 +14 13 20.1   691 – Steward Observatory, Kitt Peak-Spacewatch MPS 185683
2006 10 29.21278 01 59 09.99 +14 13 15.8   691 – Steward Observatory, Kitt Peak-Spacewatch MPS 185683
2006 11 17.07714 01 45 26.10 +12 56 05.7 21.5 V 691 – Steward Observatory, Kitt Peak-Spacewatch MPS 188807
2006 11 17.08988 01 45 25.59 +12 56 02.7 21.2 V 691 – Steward Observatory, Kitt Peak-Spacewatch MPS 188807
2006 11 17.10262 01 45 25.15 +12 56 00.8 21.4 V 691 – Steward Observatory, Kitt Peak-Spacewatch MPS 188807
2006 11 20.08473 01 43 43.11 +12 45 36.8 21.4 V 691 – Steward Observatory, Kitt Peak-Spacewatch MPS 188807
2006 11 20.10314 01 43 42.51 +12 45 34.0 21.5 V 691 – Steward Observatory, Kitt Peak-Spacewatch MPS 188807
2006 11 20.12448 01 43 41.78 +12 45 29.2 21.4 V 691 – Steward Observatory, Kitt Peak-Spacewatch MPS 188807
2009 03 02.40823 12 23 02.22 -03 45 13.2 21.3 V 691 – Steward Observatory, Kitt Peak-Spacewatch MPS 278706
2009 03 02.42588 12 23 01.57 -03 45 10.1 21.3 V 691 – Steward Observatory, Kitt Peak-Spacewatch MPS 278706
2009 03 02.44353 12 23 00.92 -03 45 06.8 21.0 V 691 – Steward Observatory, Kitt Peak-Spacewatch MPS 278706
2009 03 19.34282 12 11 11.58 -02 36 24.3 20.7 V G96 – Mt. Lemmon Survey MPS 280163
2009 03 19.35046 12 11 11.25 -02 36 22.1 20.7 V G96 – Mt. Lemmon Survey MPS 280163
2009 03 19.35811 12 11 10.89 -02 36 20.3 21.0 V G96 – Mt. Lemmon Survey MPS 280163
2009 03 19.36576 12 11 10.50 -02 36 18.0 21.3 V G96 – Mt. Lemmon Survey MPS 280163
2011 09 29.31947 00 57 55.80 +07 54 54.7 20.7 V G96 – Mt. Lemmon Survey MPS 394044
2011 09 29.32752 00 57 55.40 +07 54 52.8 20.5 V G96 – Mt. Lemmon Survey MPS 394044
2011 09 29.33550 00 57 55.00 +07 54 50.5 20.9 V G96 – Mt. Lemmon Survey MPS 394044
2011 09 29.34346 00 57 54.64 +07 54 48.4 20.8 V G96 – Mt. Lemmon Survey MPS 394044
2011 10 23.29770 00 39 47.84 +06 06 01.6 20.6 V G96 – Mt. Lemmon Survey MPS 397922
2011 10 23.30258 00 39 47.59 +06 06 00.3 20.3 V G96 – Mt. Lemmon Survey MPS 397922
2011 10 23.30735 00 39 47.41 +06 05 59.0 20.8 V G96 – Mt. Lemmon Survey MPS 397922
2011 10 23.31209 00 39 47.23 +06 05 57.7 20.8 V G96 – Mt. Lemmon Survey MPS 397922
2011 10 25.26251 00 38 30.842 +05 57 49.50 21.1 r F51 – Pan-STARRS 1, Haleakala MPS 397922
2011 10 25.28059 00 38 30.123 +05 57 45.18 21.0 r F51 – Pan-STARRS 1, Haleakala MPS 397922
2011 10 26.19412 00 37 55.34 +05 54 01.5 20.6 V G96 – Mt. Lemmon Survey MPS 397922
2011 10 26.20126 00 37 55.09 +05 53 59.2 20.9 V G96 – Mt. Lemmon Survey MPS 397922
2011 10 26.20856 00 37 54.76 +05 53 57.7 21.0 V G96 – Mt. Lemmon Survey MPS 397922
2011 10 26.21851 00 37 54.37 +05 53 55.3 21.0 V G96 – Mt. Lemmon Survey MPS 397922
2011 11 16.18744 00 28 55.34 +04 52 41.5 20.8 V G96 – Mt. Lemmon Survey MPS 400939
2011 11 16.19429 00 28 55.27 +04 52 41.0 22.6 V G96 – Mt. Lemmon Survey MPS 400939
2011 11 16.20126 00 28 55.16 +04 52 40.1 21.8 V G96 – Mt. Lemmon Survey MPS 400939
2011 11 16.20822 00 28 55.09 +04 52 39.4 21.9 V G96 – Mt. Lemmon Survey MPS 400939
2014 02 27.32265 11 13 31.47 +04 08 57.9 20.7 V G96 – Mt. Lemmon Survey MPS 503605
2014 02 27.32776 11 13 31.25 +04 08 59.7 20.7 V G96 – Mt. Lemmon Survey MPS 503605
2014 02 27.33288 11 13 31.00 +04 09 01.0 21.7 V G96 – Mt. Lemmon Survey MPS 503605
2014 02 27.33799 11 13 30.79 +04 09 02.7 21.0 V G96 – Mt. Lemmon Survey MPS 503605
2014 02 28.40208 11 12 42.383 +04 13 43.68 21.1 w F51 – Pan-STARRS 1, Haleakala MPS 505088
2014 02 28.42697 11 12 41.202 +04 13 50.34 21.0 w F51 – Pan-STARRS 1, Haleakala MPS 505088
2014 02 28.43936 11 12 40.624 +04 13 53.77 21.0 w F51 – Pan-STARRS 1, Haleakala MPS 505088
2014 03 23.24593 10 55 21.58 +05 54 53.5 20.9 V G96 – Mt. Lemmon Survey MPS 508167
2014 03 23.25102 10 55 21.38 +05 54 54.9 20.8 V G96 – Mt. Lemmon Survey MPS 508167
2014 03 23.25614 10 55 21.16 +05 54 56.2 20.8 V G96 – Mt. Lemmon Survey MPS 508167
2014 03 23.26124 10 55 20.93 +05 54 57.5 20.8 V G96 – Mt. Lemmon Survey MPS 508167
2014 04 01.22022 10 49 42.93 +06 27 52.9 21.7 V G96 – Mt. Lemmon Survey MPS 509507
2014 04 01.22477 10 49 42.73 +06 27 55.4 20.8 V G96 – Mt. Lemmon Survey MPS 509507
2014 04 01.22931 10 49 42.60 +06 27 55.7 20.8 V G96 – Mt. Lemmon Survey MPS 509507
2014 04 01.23386 10 49 42.47 +06 27 56.6 20.7 V G96 – Mt. Lemmon Survey MPS 509507
2015 06 11.36185 16 27 06.327 -23 43 33.25 20.6 w F51 – Pan-STARRS 1, Haleakala MPS 611206
2015 06 11.37398 16 27 05.687 -23 43 31.58 20.5 w F51 – Pan-STARRS 1, Haleakala MPS 611206
2015 06 11.38606 16 27 05.071 -23 43 30.09 20.6 w F51 – Pan-STARRS 1, Haleakala MPS 611206
2015 06 11.39813 16 27 04.427 -23 43 28.51 20.6 w F51 – Pan-STARRS 1, Haleakala MPS 611206
